www.pogodaiklimat.ru

Погода и климат >> Архив погоды >> Украина >> Любешов


ПОГОДА в Любешове

  • Прогноз погоды в Любешове
  • Монитор погоды в Любешове

АРХИВ ПОГОДЫ в Любешове

Время (UTC), дата Ветер
(напр.,м/с)
 
Видим.   Явления Облачность Т
(С)
Тd
(С)
f
(%)
Тe
(С)
Тes
(С)
Комфортность P
(гПа)
Po
(гПа)
Тmin
(С)
Tmax
(С)
R
(мм)
R24
(мм)
S
(см)
18 9.02 Ю 4 10 км 10/0
[Ac und]
-0.5 -4.7 73 -6 -6 1015.0 995.8 +5.7
21 9.02 Ю 2 10 км 9/0
[Ac trans]
+0.8 -2.4 79 -3 -3 1015.0 995.9
00 10.02 ЮЗ 3 10 км 10/10 720 м
[Sc]
+1.8 -1.6 78 -2 -2 1015.0 996.0
03 10.02 ЮЗ 3 10 км 8/8 750 м
[Sc]
+1.0 -1.6 83 -3 -3 1015.0 995.9
06 10.02 ЮЗ 3 10 км 9/0
[Ac trans]
+1.2 -1.0 85 -3 -3 1014.0 995.0 -0.5
09 10.02 ЮЗ 3 10 км 3/0
[Ci fib]
+5.2 -0.0 69 +2 +4 1014.0 995.3
12 10.02 ЮЗ 3 10 км 4/0
[Ac und Ci fib]
+8.4 -0.1 55 +6 +8 1013.0 994.5
15 10.02 Ю 2 10 км 5/0
[Ci fib]
+6.5 -0.5 61 +5 +5 1011.0 992.4
18 10.02 ЮВ 3 10 км 8/0
[Cs]
+4.1 -0.1 74 +1 +1 1009.0 990.3 +8.8
21 10.02 ЮВ 3 10 км 10/0
[Cs]
+3.7 -0.9 72 0 0 1007.0 988.3
00 11.02 ЮВ 3 10 км 10/10 800 м
[Sc]
+3.7 -0.9 72 0 0 1004.0 985.3
03 11.02 ЮВ 3 10 км 10/10 660 м
[Sc]
+3.1 -0.4 78 -1 -1 1003.0 984.3
06 11.02 Ю 4 4000 м слаб. дождь 10/10 480 м
[Frnb Ns]
+2.9 +1.6 91 -2 -2 1001.0 982.4 +2.9 0.4
09 11.02 Ю 3 4000 м дымка {дождь} 10/10 500 м
[St]
+3.7 +3.0 95 -0 -0 1000.0 981.4
12 11.02 Ю 3 4000 м дымка {дождь} 10/10 570 м
[St]
+4.3 +3.6 95 0 0 1001.0 982.5 0.4
15 11.02 Ю 2 4000 м слаб. дождь 10/10 450 м
[Frnb Ns]
+4.2 +3.8 97 +1 +1 1002.0 983.4
18 11.02 ЮЗ 2 4000 м дымка {дождь} 8/8 600 м
[Sc]
+3.5 +3.1 97 0 0 1004.0 985.3 +4.6 1
21 11.02 З 3 4000 м дымка 8/8 600 м
[Sc]
+3.4 +3.0 97 -1 -1 1005.0 986.3
00 12.02 З 2 4000 м дымка 10/10 600 м
[Sc]
+2.7 +1.8 94 -1 -1 1007.0 988.2
03 12.02 З 3 4000 м дымка 10/10 600 м
[Sc]
+2.4 +0.5 87 -2 -2 1008.0 989.2
06 12.02 З 2 10 км 10/10 600 м
[Cb calv]
+1.8 +0.2 89 -2 -2 1009.0 990.1 +1.6
09 12.02 СЗ 5 10 км {ливн. осадки} 9/9 630 м
[Cb cap]
+2.0 -2.3 73 -3 -3 1012.0 993.1
12 12.02 СЗ 4 10 км крупа {ливн. осадки, снег} 9/9 600 м
[Cb cap]
+1.9 -2.8 71 -3 -3 1013.0 994.0
15 12.02 СЗ 4 10 км {снег} 9/9 750 м
[Sc]
+1.6 -3.3 70 -3 -3 1015.0 996.0
18 12.02 СЗ 4 10 км в посл. час ливневой снег 10/10 500 м
[Cb cap]
+1.2 -2.4 77 -4 -4 1018.0 998.9 +2.1 0.0
21 12.02 СЗ 5 10 км 9/9 570 м
[Cb cap]
+0.8 -2.6 78 -5 -5 1020.0 1000.8
00 13.02 СЗ 5 10 км 10/10 500 м
[Cb cap]
+0.6 -3.0 77 -5 -5 1022.0 1002.8
03 13.02 СЗ 4 10 км 10/10 540 м
[Cb cap]
0.0 -3.4 78 -5 -5 1024.0 1004.7
06 13.02 З 3 10 км 9/8 570 м
[Cb calv Ac lent]
-0.5 -6.1 66 -5 -5 1024.0 1004.7 -0.6
09 13.02 З 6 10 км 10/5 600 м
[Sc As trans]
-0.2 -4.3 74 -7 -7 1024.0 1004.7
12 13.02 ЮЗ 5 10 км 10/6 660 м
[Sc As op]
+1.2 -1.7 81 -4 -4 1022.0 1002.8
15 13.02 ЮЗ 6 4000 м слаб. снег 10/10 480 м
[Frnb Ns]
+0.2 -0.7 94 -7 -7 1020.0 1000.8
18 13.02 З 5 4000 м слаб. дождь 10/10 400 м
[Frnb Ns]
+2.0 +0.8 92 -4 -4 1020.0 1000.9 +2.1 1
21 13.02 З 6 10 км {дождь} 10/10 570 м
[St]
+4.1 +1.8 85 -1 -1 1020.0 1001.1
00 14.02 СЗ 5 4000 м слаб. дождь 10/10 420 м
[Frnb Ns]
+4.0 +1.4 83 -1 -1 1022.0 1003.0 0.4
03 14.02 СЗ 4 10 км {дождь} 10/10 600 м
[Sc]
+3.3 +0.4 81 -1 -1 1025.0 1005.9
06 14.02 СЗ 3 10 км {дождь} 10/10 600 м
[Sc]
+2.8 +0.7 86 -1 -1 1027.0 1007.9 +2.0 0.4
09 14.02 СЗ 3 10 км 10/10 540 м
[St]
+2.9 +1.6 91 -1 -1 1028.0 1008.8
12 14.02 СЗ 4 10 км 9/9 600 м
[Sc]
+5.1 +1.2 76 +1 +1 1029.0 1010.0
15 14.02 СЗ 3 10 км 3 балла +5.3 +0.9 73 +2 +2 1029.0 1010.0
18 14.02 штиль 0 4000 м дымка ясно 0.0 -0.8 94 -1 -1 1031.0 1011.6 +5.6
21 14.02 штиль 0 4000 м дымка 3 балла -1.0 -1.8 94 -2 -2 1032.0 1012.5
00 15.02 З 2 4000 м дымка 3/0
[Cs]
-0.6 -1.2 96 -5 -5 1032.0 1012.5
03 15.02 З 2 4000 м дымка 10 баллов -0.4 -1.0 96 -4 -4 1032.0 1012.5
06 15.02 ЮЗ 2 1000 м дымка 10/0
[As op]
-0.2 -0.5 98 -4 -4 1032.0 1012.5 -1.1
09 15.02 ЮЗ 3 2000 м 10 баллов +1.6 +1.3 98 -3 -3 1032.0 1012.7
12 15.02 ЮЗ 3 2000 м дымка 10/10 420 м
[St]
+3.9 +3.8 99 -0 -0 1031.0 1011.9
15 15.02 З 3 4000 м дымка 10 баллов +4.5 +4.1 97 +1 +1 1030.0 1010.9
18 15.02 З 3 4000 м дымка 10/10 540 м
[St]
+4.6 +3.6 93 +1 +1 1030.0 1010.9 +4.7 0.0
21 15.02 СЗ 3 10 км 10 баллов +4.1 +1.8 85 0 0 1029.0 1009.9
00 16.02 СЗ 2 10 км 10/10 480 м
[St]
+3.3 +2.0 91 0 0 1029.0 1009.9
03 16.02 З 3 4000 м дымка 10 баллов +2.4 +1.2 92 -2 -2 1028.0 1008.8
06 16.02 З 3 1000 м дымка 10/10 420 м
[St]
+2.0 +1.4 96 -2 -2 1029.0 1009.8 +1.9
09 16.02 З 4 1000 м туман 10 баллов +2.4 +2.1 98 -3 -3 1029.0 1009.8
12 16.02 ЮЗ 3 4000 м дымка {туман} 10/10 420 м
[St]
+3.5 +2.8 95 -1 -1 1028.0 1008.9
15 16.02 З 3 4000 м дымка 10 баллов +3.5 +2.8 95 -1 -1 1027.0 1007.9

 

Местоположение метеостанции Любешов (Волынская область, Украина): широта 51.67 долгота 25.27 высота над уровнем моря 152 м.

В архиве по умолчанию представлена погода в Любешове за последнюю неделю. Архивные данные за месяц целиком и за предыдущие месяцы, начиная с января 2011 года, Вы можете получить, выбрав интересующий диапазон дат из раскрывающегося списка и нажав кнопку "Ввод!".


*Определитесь, кто Вы:
робот инопланетянин человек

Внимание! Время в таблицах - всемирное. Для получения местного времени необходимо прибавить поправку, которая равна 2 ч.

Смотрите также архив погоды в соседних городах и на ближайших метеорологических станциях:

Погода в Маневичах (Волынская область, Украина) (47 км)
Погода в Свитязи (Волынская область, Украина) (54 км)
Погода в Дрогичине (Брестская область, Беларусь) (60 км)
Погода в Ковеле (Волынская область, Украина) (65 км)
Погода в Пинске (Брестская область, Беларусь) (74 км)
Погода в Сарнах (Ровенская область, Украина) (103 км)
Погода в Луцке (Волынская область, Украина) (109 км)
Погода в Пружанах (Брестская область, Беларусь) (111 км)
Погода в Владимире-Волынском (Волынская область, Украина) (114 км)
Погода в Ивацевичах (Брестская область, Беларусь) (115 км)

Пояснения к столбцам:

Ветер - указаны скорость ветра в м/с - средняя за 10 мин, порывы в срок и между сроками (в фигурных скобках) и направление, откуда дует ветер: С - северный, СВ - северо-восточный, В - восточный, ЮВ - юго-восточный, Ю - южный, ЮЗ - юго-западный, З - западный, СЗ - северо-западный.
Видимость - горизонтальная дальность видимости в метрах или километрах. При видимости от 1 до 10 км при отсутствии осадков обычно наблюдается дымка, при ухудшении видимости до 1 км и менее - туман. В сухую погоду видимость может ухудшаться дымом, пылью или мглою.
Явления - указаны атмосферные явления, наблюдавшиеся в срок или в последний час перед сроком; фигурными скобками обозначены явления, наблюдавшиеся между сроками (за 1-3 часа до срока); квадратными скобками обозначены град или гололедные отложения с указанием их диаметра в мм.
Облачность - указаны через наклонную черту общая и нижняя облачность в баллах и высота нижней границы облаков в метрах; квадратными скобками обозначены формы облаков: Ci - перистые, Cs - перисто-слоистые, Cc - перисто-кучевые, Ac - высококучевые, As - высокослоистые, Sc - слоисто-кучевые, Ns - слоисто-дождевые, Cu - кучевые, Cb - кучево-дождевые. Подробнее классификацию облаков см. в Атласе облаков (PDF).
T - Температура воздуха - температура, измеренная на высоте 2 м над землей.
Td - Температура точки росы - температура, при понижении до которой содержащийся в воздухе водяной пар достигнет насыщения.
f - Относительная влажность воздуха - влажноcть воздуха, измеренная на высоте 2 м над землей.
Te - Эффективная температура - температура, которую ощущает одетый по сезону человек в тени. Характеристика душности погоды. При расчете учитывается влияние влажности воздуха и скорости ветра на теплоощущения человека.
Tes - Эффективная температура на солнце - температура, которую ощущает человек, с поправкой на солнечный нагрев. Характеристика знойности погоды. Зависит от высоты солнца над горизонтом, облачности и скорости ветра. Ночью, в пасмурную погоду, а также при ветре 12 м/с и более поправка равна нулю.
P - Атмосферное давление - приведенное к уровню моря атмосферное давление.
Po - Атмосферное давление - измеренное на уровне метеостанции атмосферное давление.
Tmin - Минимальная температура - минимум температуры воздуха на высоте 2 м над землей.
Tmax - Максимальная температура - максимум температуры воздуха на высоте 2 м над землей.
R - Количество осадков - Количество выпавших осадков за период времени, мм. При наведении курсора мыши на число - период времени, за который выпало указанное количество осадков.
R24 - Количество осадков - Количество выпавших осадков за 24 часа, мм.
S - Снежный покров - Высота снежного покрова, см. При наведении курсора мыши на число - состояние снежного покрова и степень покрытия местности в баллах.